Weather in Malaga

Spain     36˚42′53″N   4˚26′58″W
temp.,
°C
wind,
m/s
gust,
m/s
humid.,
%
clouds,
%
prec.,
mm/h
press.,
hPa
HPBL,
m
1 december, tue
tue101:00+13˚nw2284100 0.0 102248
04:00+13˚nnw228098 0.0 102137
07:00+13˚nnw227498 0.0 102244
10:00+14˚nw226689 0.0 102283
13:00+18˚wsw125387 0.0 1021560
16:00+19˚sw22521 0.0 1019805
19:00+15˚wnw11692 0.0 101947
22:00+14˚nnw22630 0.0 101944
2 december, wed
wed201:00+13˚nnw23620 0.0 101865
04:00+12˚nw33640 0.0 101687
07:00+12˚nw44670 0.0 1016114
10:00+13˚nw34620 0.0 1015176
13:00+18˚nw35410 0.0 1014592
16:00+18˚nnw46380 0.0 1012790
19:00+15˚nw35490 0.0 1013287
22:00+13˚n22530 0.0 101584
3 december, thu
thu301:00+12˚e13590 0.1 1016213
04:00+13˚ese366780 0.1 1015580
07:00+11˚ene127358 0.1 1015271
10:00+12˚nne116630 0.0 1015212
13:00+15˚s225824 0.0 1014939
16:00+15˚sw235971 0.0 1012969
19:00+13˚nw236756 0.0 1012332
22:00+12˚nnw35724 0.0 1012254
4 december, fri
fri401:00+11˚nw49742 0.0 1011467
04:00+10˚nnw48680 0.0 1009426
07:00+9˚wnw39750 0.0 1008638
10:00+12˚w386593 0.1 1007867
13:00+14˚w6145674 0.1 10041827
16:00+12˚nw10157592 1.2 10021300
19:00+10˚nw10186396 2.3 10031730
22:00+8˚wnw8146670 0.1 10061080
5 december, sat
sat501:00+6˚nw7146935 0.1 10071003
04:00+6˚nw613710 0.0 1008815
07:00+5˚nw613751 0.0 1008891
10:00+7˚nw6106830 0.1 10101056
13:00+10˚nw8114617 0.1 10111793
16:00+11˚wnw711500 0.0 10111740
19:00+8˚wnw59605 0.0 1013785
22:00+7˚nw511640 0.0 1015603